Regional Weather Roundup
Issued by NWS

Home | Current Version | Previous Version | Graphics & Text | Print | Product List | Glossary On
Versions: 1 2 3 4 5 6 7 8 9 10 11 12 13 14 15 16 17 18 19 20 21 22 23 24 25 26 27 28 29 30 31 32 33 34 35 36 37 38 39 40 41 42 43 44 45 46 47 48 49 50
000
ASUS43 KLOT 030912
RWRIL

ILLINOIS REGIONAL WEATHER ROUNDUP
NATIONAL WEATHER SERVICE CHICAGO/ROMEOVILLE IL
400 AM CDT MON AUG 03 2015

NOTE: "FAIR" INDICATES FEW OR NO CLOUDS BELOW 12,000 FEET WITH NO
SIGNIFICANT WEATHER AND/OR OBSTRUCTIONS TO VISIBILITY.

* THESE STATIONS ARE NOT UNDER NWS QUALITY CONTROL. THEY ALSO MAY NOT
  REPORT WEATHER SUCH AS PRECIPITATION OR FOG.

ILZ001-002-007-009-015-016-024-031000-
NORTHWEST ILLINOIS

CITY           SKY/WX    TMP DP  RH WIND       PRES   REMARKS
MOLINE         PTCLDY    69  62  78 W6        29.82R
STERLING*      PTCLDY    72  64  78 NW7       29.77R
SAVANNA*       CLEAR     71  62  72 NW7       29.81R
$$

ILZ003-004-008-010-011-017-018-031000-
NORTH CENTRAL ILLINOIS

CITY           SKY/WX    TMP DP  RH WIND       PRES   REMARKS
ROCKFORD       MOCLDY    70  63  78 NW6       29.80R
FREEPORT*      PTCLDY    64  61  90 NW5       29.82R
ROCHELLE*      CLEAR     67  65  94 CALM      29.80R
DE KALB*       CLEAR     67  65  91 CALM      29.79S
PERU*          CLEAR     69  64  83 NW5       29.79S
$$

ILZ005-006-012>014-019>023-031000-
NORTHEAST ILLINOIS

CITY           SKY/WX    TMP DP  RH WIND       PRES   REMARKS
CHICAGO-OHARE  PTCLDY    68  66  93 W7        29.76R
CHICAGO-MIDWAY MOCLDY    69  64  84 CALM      29.76R
AURORA         CLEAR     66  62  87 SW3       29.78R
LANSING*       PTCLDY    64  64  97 CALM      29.76R
JOLIET*        MOCLDY    67  66  95 CALM      29.78R
WAUKEGAN       CLEAR     67  65  93 W3        29.76R
DUPAGE AIRPORT CLEAR     67  64  90 CALM      29.77R
KANKAKEE*      MOCLDY    69  65  88 W5        29.78R
WHEELING       NOT AVBL
MORRIS*        PTCLDY    67  65  91 NW3       29.77R
ROMEOVILLE*    PTCLDY    66  65  98 W6        29.78R
NORTHERLY ISL    N/A     70  65  84 W5          N/A
$$

LMZ740>746-031000-
SOUTHERN LAKE MICHIGAN

STATION/POSITION SKY/WX   TEMP    WIND        PRES    VSBY  WAVE
                          AIR SEA DIR/SP/G                  HT/PER
                          (F)     (DEG/KT/KT) (MB)    (MI)  (FT/S)
HARRISON CRIB              69     280/  9/ 10   N/A
BURNHAM HARBOR             70     280/  7       N/A
CALUMET HARBOR             68     240/  2/  3   N/A
BURNS HARBOR               72     300/  6/  7 1008.1R
MICHIGAN CITY              70     280/  8/  9   N/A
MICHIGAN CITY 6N           72 73  330/  2/  4   N/A           3/ 5
ST. JOSEPH                 71 73  360/  6/  6   N/A           3/ 5
$$

ILZ025>027-034>036-040-047-049-050-058-095>099-031000-
WEST-CENTRAL ILLINOIS

CITY           SKY/WX    TMP DP  RH WIND       PRES   REMARKS
QUINCY         PTCLDY    72  58  61 N10       29.85R
GALESBURG*     PTCLDY    66  63  87 W6        29.84R
MACOMB*        CLEAR     69  62  78 NW6       29.85S
JACKSONVILLE*  PTCLDY    72  66  81 NW8       29.83R
PITTSFIELD*    MOCLDY    69  63  82 CALM      29.85R
$$

ILZ028>032-037-038-041>044-048-051>054-059>061-031000-
CENTRAL ILLINOIS

CITY           SKY/WX    TMP DP  RH WIND       PRES   REMARKS
PONTIAC        CLEAR     72  71  96 CALM      29.78R
BLOOMINGTON    PTCLDY    74  71  90 NW8       29.80S
DECATUR        CLEAR     75  68  78 W9        29.81R
PEORIA         CLEAR     74  64  71 NW5       29.80R
LACON*         CLEAR     71  64  76 N6        29.78R
LINCOLN*       CLEAR     76  69  79 W3        29.79S
SPRINGFIELD    CLEAR     70  67  90 W8        29.82R
TAYLORVILLE    PTCLDY    70  68  94 SW7       29.82S
$$

ILZ033-039-045-046-055>057-062-063-031000-
EAST-CENTRAL ILLINOIS

CITY           SKY/WX    TMP DP  RH WIND       PRES   REMARKS
CHAMPAIGN      CLEAR     71  68  90 SW7       29.80R
DANVILLE*      CLEAR     73  69  90 W6        29.76R
RANTOUL*       CLEAR     76  70  84 W9        29.79R
MATTOON        CLEAR     74  69  85 SW8       29.80R
PARIS*         CLEAR     73  72  94 SW8       29.80R
$$

ILZ079-100>102-031000-
SOUTHWEST ILLINOIS

CITY           SKY/WX    TMP DP  RH WIND       PRES   REMARKS
ALTON          CLOUDY    72  67  86 S3        29.83S
BELLEVILLE     MOCLDY    75  72  90 SW5       29.82S
CAHOKIA*       MOCLDY    78  69  73 SW5       29.83R HX  80
SPARTA*        PTCLDY    77  69  77 SW7       29.86R
$$

ILZ064>066-069>071-074>076-080>082-084>086-088>090-092>094-031000-
SOUTH-CENTRAL ILLINOIS

CITY           SKY/WX    TMP DP  RH WIND       PRES   REMARKS
CARBONDALE     CLEAR     76  70  82 SW7       29.85F
CAIRO*         CLEAR     76  71  85 CALM      29.87F
EFFINGHAM*     CLEAR     73  68  84 CALM      29.83R
MARION         CLEAR     77  72  83 SW5       29.86S
MT. VERNON     CLEAR     73  66  78 SW5       29.85R
CENTRALIA*     CLEAR     75  68  78 SW6       29.83S
SALEM*         CLEAR     77  70  79 SW6       29.83S
METROPOLIS*    PTCLDY    76  74  95 SW5       29.88S
$$

ILZ067-068-072-073-078-083-087-091-031000-
SOUTHEAST ILLINOIS

CITY           SKY/WX    TMP DP  RH WIND       PRES   REMARKS
LAWRENCEVILLE  CLEAR     74  71  91 SW8       29.82S
FLORA*         CLEAR     73  70  91 SW5       29.83R
FAIRFIELD*     CLEAR     73  71  91 SW3       29.83R
HARRISBURG*    CLEAR     74  73  96 CALM      29.86F
ROBINSON*      CLEAR     74  71  90 SW6       29.83R
CARMI*         CLEAR     74  67  79 S7        29.83F
$$

ABBREVIATIONS USED IN REMARKS
   TC - TEMPERATURE IN CELSIUS
  WCI - WIND CHILL INDEX
   HX - HEAT INDEX
  VSB - VISIBILITY
$$




USA.gov is the U.S. government's official web portal to all federal, state and local government web resources and services.